Probability
0 13 39 61 74 81 87 87 84 77 71 74 77 81 84 77 77 71 74 68 65 65 61 48 39 35 26 19 19 19 13 3 3 6 3 3 3 0 0 0 0 0 0
0 10 32 52 68 65 74 81 81 81 71 74 68 74 77 71 68 68 65 68 65 65 48 48 45 39 23 19 19 16 13 13 13 10 6 3 0 0 0 0 0 0 0
0 10 19 48 61 65 68 74 74 74 77 74 71 68 74 68 65 65 58 61 65 58 55 48 42 39 19 19 19 16 16 16 6 6 3 0 0 0 0 0 0 0 0
0 10 16 42 58 61 65 65 68 68 74 74 77 74 65 65 61 58 58 58 61 52 52 45 42 29 19 16 19 16 16 13 6 0 0 0 0 0 0 0 0 0 0
0 10 16 26 55 55 61 65 61 65 68 71 71 71 65 58 58 58 55 55 58 55 45 39 39 32 19 16 16 13 13 10 0 0 0 0 0 0 0 0 0 0 0
3 13 16 19 35 42 52 52 52 58 55 55 58 61 55 48 55 55 55 55 52 45 42 39 32 16 16 16 13 13 13 6 0 0 0 0 0 0 0 0 0 0 0
3 13 16 16 23 39 39 45 45 45 45 48 45 45 45 48 48 52 58 55 55 42 39 32 26 16 13 16 10 10 13 0 0 0 0 0 0 0 0 0 0 0 0
6 10 16 13 16 26 32 39 35 26 26 45 45 39 45 39 39 35 39 42 52 39 32 29 23 16 13 6 10 6 6 0 0 0 0 0 0 0 0 0 0 0 0
6 6 13 13 13 13 13 26 26 32 29 29 29 32 35 39 42 32 35 32 32 29 32 29 23 13 10 6 6 6 3 0 0 0 0 0 0 0 0 0 0 0 0
6 6 13 13 13 13 6 6 10 13 16 19 16 10 10 19 19 29 23 19 23 29 16 13 10 10 10 6 6 0 0 0 0 0 0 0 0 0 0 0 0 0 0
6 6 6 10 10 6 10 0 0 3 6 6 6 3 0 6 10 13 3 0 13 13 13 10 3 10 3 0 0 0 0 0 0 0 0 0 0 0 0 0 0 0 0
3 6 10 6 10 6 6 0 0 0 6 3 3 3 6 6 10 3 3 0 3 6 0 0 3 3 3 3 0 0 0 0 0 0 0 0 0 0 0 0 0 0 0
3 3 3 6 10 6 6 3 0 0 0 3 3 3 3 3 6 6 10 3 6 0 6 0 6 3 3 6 6 0 0 0 0 0 0 0 0 0 0 0 0 3 0
3 3 3 3 10 6 3 3 3 0 0 0 3 3 3 3 3 6 6 13 10 10 10 16 10 3 3 6 0 0 0 0 0 0 0 0 0 0 0 0 3 3 3
3 3 3 3 3 3 3 3 3 0 0 0 0 6 3 3 3 0 3 10 10 10 6 13 13 3 0 0 0 0 0 0 0 0 0 0 0 0 0 0 3 3 3
0 3 0 0 0 0 3 0 0 0 0 0 0 0 3 0 0 0 0 3 0 10 6 6 6 0 0 0 0 0 0 0 0 0 0 0 0 0 0 0 3 3 3
0 0 0 0 0 0 0 0 3 0 0 0 0 0 0 0 0 0 0 0 3 3 3 3 3 3 0 0 0 0 0 0 0 0 0 0 0 0 0 0 0 3 3
0 0 0 0 0 0 0 0 0 0 0 0 0 0 0 0 0 0 0 0 0 0 0 0 0 0 0 0 0 0 0 0 0 0 0 0 0 0 0 0 0 0 0
0 0 0 0 0 0 0 0 0 0 0 0 0 0 0 0 0 0 0 0 0 0 0 0 0 0 0 0 0 0 0 0 0 0 0 0 0 0 0 0 0 0 0
0 0 0 0 0 0 0 0 0 0 0 0 0 0 0 0 0 0 0 0 0 0 0 0 3 0 0 0 0 0 0 0 0 0 0 0 0 0 0 0 0 0 0
0 0 0 0 0 0 0 0 0 0 0 0 0 0 0 0 0 0 0 0 0 0 0 0 0 0 0 0 0 0 0 0 0 0 0 0 0 0 0 0 0 0 0
0 0 0 0 0 0 0 0 0 0 0 0 0 0 0 0 0 0 0 0 0 0 0 0 0 0 0 0 0 0 0 0 0 0 0 0 0 0 0 0 0 0 0
0 0 0 0 0 0 0 0 0 0 0 0 0 0 0 0 0 0 0 0 0 0 0 0 0 0 0 0 0 0 0 0 0 0 0 0 0 0 0 0 0 0 0
0 0 0 0 0 0 0 0 0 0 0 0 0 0 0 0 0 0 0 0 0 0 0 0 0 0 0 0 0 0 0 0 0 0 0 0 0 0 0 0 0 0 0
0 0 0 0 0 0 0 0 0 0 0 0 0 0 0 0 0 0 0 0 0 0 0 0 0 0 0 0 0 0 0 0 0 0 0 0 0 0 0 0 0 0 0
0 3 3 0 0 0 0 0 0 0 0 0 0 0 0 0 0 0 0 0 0 0 0 0 0 0 0 0 0 0 0 0 0 0 0 0 0 0 0 0 0 0 0
Height
5853 5854 5854 5855 5856 5856 5857 5857 5858 5858 5859 5860 5860 5860 5861 5861 5862 5862 5862 5862 5862 5862 5862 5862 5862 5862 5862 5862 5862 5862 5861 5861 5860 5860 5859 5859 5858 5857 5856 5855 5854 5853 5851
5850 5850 5851 5852 5853 5853 5854 5854 5855 5855 5856 5856 5857 5858 5858 5859 5859 5859 5860 5860 5860 5860 5860 5860 5860 5860 5860 5860 5860 5859 5859 5859 5858 5858 5857 5857 5856 5855 5854 5853 5852 5851 5849
5846 5847 5847 5848 5849 5850 5850 5851 5852 5852 5852 5853 5854 5854 5855 5855 5856 5856 5856 5857 5857 5857 5857 5858 5857 5857 5857 5857 5857 5857 5857 5857 5856 5856 5855 5855 5854 5853 5852 5851 5850 5849 5848
5842 5843 5844 5844 5845 5846 5846 5847 5848 5849 5849 5850 5850 5851 5851 5852 5852 5852 5853 5853 5854 5854 5854 5854 5855 5854 5854 5854 5854 5854 5854 5854 5854 5853 5853 5852 5852 5851 5850 5849 5848 5847 5845
5838 5839 5839 5840 5841 5842 5842 5843 5844 5844 5845 5846 5846 5847 5847 5848 5848 5848 5849 5849 5850 5850 5851 5851 5851 5851 5851 5851 5851 5851 5851 5851 5851 5850 5850 5849 5849 5848 5847 5846 5845 5844 5843
5833 5834 5835 5835 5836 5837 5838 5838 5839 5840 5840 5841 5842 5842 5843 5843 5844 5844 5845 5845 5845 5846 5846 5847 5847 5847 5847 5847 5847 5847 5848 5848 5848 5847 5847 5846 5846 5845 5844 5843 5842 5841 5840
5827 5828 5829 5830 5831 5831 5832 5833 5834 5834 5835 5836 5836 5837 5838 5838 5839 5839 5839 5840 5841 5841 5842 5842 5842 5843 5843 5843 5843 5843 5843 5843 5844 5843 5843 5843 5842 5842 5841 5840 5839 5838 5837
5822 5822 5823 5824 5825 5826 5826 5827 5828 5828 5829 5830 5830 5831 5832 5833 5833 5834 5834 5835 5835 5836 5836 5837 5837 5838 5838 5838 5838 5838 5839 5839 5839 5839 5839 5839 5839 5838 5837 5837 5836 5835 5833
5815 5816 5817 5817 5818 5819 5820 5820 5821 5822 5822 5823 5824 5824 5825 5826 5827 5828 5828 5829 5829 5830 5830 5831 5831 5832 5833 5833 5834 5834 5834 5834 5834 5835 5835 5835 5835 5834 5834 5833 5832 5831 5830
5808 5809 5809 5810 5811 5811 5812 5813 5814 5814 5815 5816 5817 5817 5818 5819 5820 5820 5820 5821 5823 5823 5824 5825 5825 5826 5827 5828 5828 5829 5829 5829 5829 5830 5830 5830 5830 5830 5829 5829 5828 5827 5826
5800 5800 5801 5802 5803 5803 5804 5805 5806 5806 5807 5808 5809 5810 5810 5811 5812 5813 5814 5815 5816 5817 5817 5818 5819 5820 5820 5821 5822 5823 5823 5824 5824 5824 5825 5825 5825 5825 5824 5824 5823 5823 5822
5790 5791 5792 5793 5794 5795 5795 5796 5797 5798 5799 5799 5800 5801 5802 5803 5804 5805 5806 5807 5809 5810 5810 5811 5812 5812 5813 5815 5816 5816 5817 5818 5818 5819 5819 5819 5819 5819 5819 5819 5819 5818 5817
5780 5781 5782 5783 5784 5785 5786 5787 5787 5788 5789 5790 5791 5792 5793 5794 5795 5796 5797 5798 5799 5801 5802 5804 5804 5805 5806 5808 5809 5810 5810 5811 5812 5812 5813 5813 5813 5813 5814 5814 5813 5813 5812
5770 5771 5771 5772 5773 5774 5775 5776 5777 5778 5779 5780 5781 5782 5783 5784 5785 5786 5787 5788 5790 5792 5794 5795 5796 5797 5799 5800 5801 5802 5803 5804 5805 5806 5807 5807 5807 5807 5807 5808 5807 5807 5806
5760 5760 5760 5761 5762 5763 5764 5765 5766 5767 5768 5768 5770 5771 5772 5773 5774 5776 5777 5778 5780 5782 5784 5785 5787 5788 5790 5791 5793 5794 5795 5796 5797 5798 5799 5800 5800 5801 5801 5801 5801 5801 5801
5749 5749 5749 5749 5750 5751 5752 5753 5753 5754 5755 5756 5757 5759 5760 5761 5763 5764 5766 5767 5769 5770 5772 5774 5776 5778 5780 5782 5783 5785 5786 5787 5789 5790 5791 5792 5793 5794 5794 5795 5795 5794 5794
5738 5738 5738 5737 5737 5738 5739 5740 5740 5741 5742 5743 5744 5745 5746 5748 5750 5752 5753 5755 5757 5759 5761 5762 5764 5766 5768 5771 5773 5775 5777 5778 5780 5781 5783 5784 5785 5786 5787 5787 5788 5787 5787
5726 5726 5725 5724 5724 5725 5725 5726 5727 5727 5728 5729 5730 5730 5732 5733 5735 5737 5739 5742 5744 5746 5748 5750 5751 5754 5756 5759 5762 5764 5767 5769 5770 5772 5774 5775 5777 5778 5779 5780 5780 5780 5780
5714 5713 5713 5712 5711 5711 5711 5711 5712 5713 5713 5713 5714 5715 5717 5718 5719 5722 5724 5727 5729 5731 5734 5736 5738 5741 5744 5747 5750 5753 5755 5758 5760 5762 5764 5766 5768 5769 5771 5771 5772 5772 5772
5702 5701 5700 5699 5697 5697 5697 5696 5697 5698 5698 5697 5698 5700 5701 5702 5703 5705 5708 5711 5713 5716 5719 5721 5724 5727 5730 5733 5736 5740 5743 5746 5750 5752 5754 5756 5758 5760 5761 5763 5764 5764 5765
5690 5688 5687 5685 5684 5682 5682 5681 5682 5682 5682 5681 5682 5683 5684 5685 5686 5688 5691 5694 5696 5699 5703 5706 5708 5712 5715 5719 5722 5726 5730 5734 5738 5741 5744 5746 5748 5750 5752 5753 5755 5756 5756
5677 5675 5673 5671 5669 5667 5666 5666 5666 5666 5666 5665 5666 5666 5666 5667 5668 5670 5673 5675 5679 5682 5686 5689 5693 5696 5700 5704 5708 5711 5716 5721 5725 5729 5732 5736 5738 5740 5742 5744 5745 5747 5748
5664 5661 5659 5657 5655 5652 5651 5650 5649 5649 5649 5649 5648 5648 5648 5648 5649 5651 5654 5657 5660 5663 5668 5672 5676 5680 5685 5689 5693 5698 5702 5708 5714 5718 5721 5725 5728 5730 5732 5734 5735 5737 5738
5650 5647 5645 5642 5640 5637 5635 5633 5632 5631 5631 5630 5629 5630 5630 5630 5630 5632 5635 5638 5641 5645 5650 5655 5659 5663 5668 5673 5678 5683 5689 5695 5700 5706 5710 5714 5717 5720 5722 5724 5726 5727 5729
5636 5633 5630 5627 5624 5621 5618 5616 5615 5613 5612 5611 5610 5611 5611 5612 5612 5613 5615 5618 5622 5627 5632 5637 5641 5646 5651 5657 5663 5669 5674 5680 5686 5692 5698 5703 5706 5708 5711 5713 5715 5717 5719
5622 5619 5615 5612 5609 5606 5602 5600 5597 5596 5595 5594 5593 5593 5593 5593 5594 5595 5596 5599 5603 5608 5614 5619 5624 5629 5635 5641 5647 5654 5660 5666 5673 5679 5685 5690 5693 5697 5700 5702 5705 5707 5709
Wind_Speed
17 17 17 17 18 18 18 19 19 19 20 20 19 19 18 18 18 18 17 16 15 14 14 14 13 12 11 10 9 9 9 8 8 8 8 8 8 9 9 10 10 11 11
18 18 18 19 19 20 20 20 20 20 20 21 21 21 21 20 20 20 19 18 17 17 16 16 15 14 13 12 11 11 10 10 10 10 10 10 10 10 10 11 11 12 12
20 20 20 20 20 21 21 21 21 22 22 22 22 22 22 22 22 21 21 21 20 19 18 18 17 17 16 15 14 13 12 12 12 11 11 11 11 11 11 12 12 12 13
21 21 21 21 21 22 22 23 23 23 24 24 24 24 24 23 23 23 23 23 22 21 21 20 19 19 18 17 16 16 15 14 14 13 13 13 13 12 13 13 13 13 14
23 23 23 23 24 24 24 24 24 24 25 25 25 25 25 25 25 25 25 24 24 23 23 22 22 21 21 20 19 18 17 16 16 15 15 15 15 14 14 14 14 15 15
26 26 25 26 26 26 26 26 26 26 26 26 27 27 27 26 27 27 27 26 26 26 25 24 24 23 23 22 22 21 20 19 18 17 17 17 16 16 16 16 16 16 16
28 28 28 28 28 28 28 29 29 29 29 29 29 29 29 28 28 27 28 27 27 27 27 26 26 25 24 24 24 23 22 21 20 20 20 19 19 18 18 17 17 17 17
30 31 31 31 31 31 31 31 31 32 32 32 31 31 31 31 30 29 29 29 29 29 28 28 28 27 26 26 26 25 24 23 23 22 22 21 20 20 19 19 19 18 18
32 32 33 33 33 33 33 33 34 34 34 34 34 34 34 34 33 32 31 31 31 30 30 30 29 28 28 28 28 27 26 25 24 24 24 23 23 22 21 21 21 20 20
35 35 35 36 36 36 36 36 36 36 37 37 37 37 37 37 36 35 34 34 34 33 32 32 31 30 30 30 30 29 28 28 26 26 26 25 24 24 23 23 22 22 21
37 38 38 38 39 39 39 39 39 39 39 39 39 40 39 39 39 39 37 37 36 35 35 34 34 33 33 31 31 31 31 30 29 28 28 27 26 26 25 24 24 23 23
39 40 40 40 40 41 41 42 41 41 42 42 42 42 42 42 42 42 41 40 39 38 38 37 36 36 35 34 33 33 33 32 32 31 30 29 29 28 27 26 26 25 24
41 41 42 42 42 42 43 43 43 43 44 44 45 45 45 45 45 44 44 43 41 41 41 40 40 38 37 37 37 36 35 35 34 33 32 31 31 30 29 28 28 27 26
41 42 43 43 44 44 44 44 45 45 46 46 46 47 47 48 48 47 47 47 44 44 43 43 42 42 40 40 39 39 38 37 36 35 34 34 33 32 31 30 29 29 28
41 42 43 43 44 45 45 46 47 47 48 48 49 49 50 50 50 50 50 50 49 47 46 46 45 45 44 43 43 42 41 40 39 38 37 36 35 34 33 32 31 31 30
42 43 44 45 45 46 47 47 48 48 50 51 51 52 52 52 53 53 52 52 51 50 49 49 48 48 48 46 45 45 44 43 42 41 40 39 37 36 35 34 33 33 32
43 44 45 46 47 48 49 49 50 50 51 52 53 54 54 55 55 55 54 54 54 53 52 51 51 51 51 50 48 48 46 45 44 43 42 41 40 38 37 37 35 34 33
44 45 46 47 48 50 50 51 52 52 53 54 55 56 56 57 57 57 57 56 56 55 54 54 54 54 54 52 51 50 48 47 46 45 44 43 42 41 39 38 37 36 35
45 45 46 48 49 50 52 52 53 53 54 55 56 57 58 59 60 59 59 59 58 58 57 56 56 55 56 54 53 52 51 49 48 46 46 45 43 43 42 40 39 37 37
45 46 47 48 50 51 53 54 54 55 56 56 57 58 60 61 62 62 62 61 60 59 59 59 58 58 58 56 55 55 54 52 50 49 48 46 44 44 43 41 40 39 38
45 47 48 49 51 52 53 54 54 55 56 57 58 59 61 63 63 64 63 62 62 61 61 60 59 59 60 59 58 57 56 54 52 50 50 47 45 45 43 43 42 40 40
46 48 49 50 51 52 53 54 55 56 57 58 59 60 61 63 64 65 64 64 63 63 62 61 61 61 61 61 60 58 58 56 54 53 51 49 48 47 45 44 43 42 41
48 49 50 50 51 53 55 55 56 58 58 59 60 60 61 62 64 65 64 64 64 64 63 63 62 62 61 61 61 60 59 58 56 54 52 50 50 48 46 45 44 43 42
48 50 51 51 52 54 55 56 56 57 58 59 59 59 61 61 63 64 64 65 64 64 63 63 63 62 61 61 61 61 61 58 57 55 54 52 51 50 48 47 46 45 43
49 50 51 52 53 55 55 56 56 56 58 58 58 57 59 59 61 61 62 64 64 63 63 64 64 62 61 61 62 61 61 59 57 56 54 53 52 50 50 49 47 46 44
50 50 51 53 54 54 55 55 55 55 56 57 57 56 56 57 58 59 60 61 61 62 63 63 63 62 61 61 62 61 61 60 58 56 54 53 52 51 50 49 48 47 45
Wind_Direction
246 245 244 243 242 241 241 241 242 244 244 245 246 246 245 244 244 243 241 239 239 240 239 239 239 242 245 248 255 261 264 269 274 279 284 290 299 305 307 308 312 316 319
248 247 247 245 244 243 243 243 244 244 245 246 246 248 248 248 247 246 246 244 243 243 243 243 244 245 247 250 255 260 263 267 272 275 278 283 290 298 303 304 305 309 313
249 248 248 248 247 246 246 246 246 247 247 247 247 247 248 249 249 249 250 249 248 247 247 247 247 249 250 251 254 259 262 267 271 272 275 279 285 291 298 301 302 304 307
250 250 250 250 250 249 249 249 249 250 251 251 251 251 251 251 251 251 251 252 251 251 251 251 251 252 253 254 255 258 262 266 269 271 273 276 282 287 293 297 299 301 303
252 252 253 253 252 252 251 251 251 252 252 253 253 253 254 254 254 253 252 252 253 253 253 253 253 254 255 256 257 258 261 264 267 270 272 275 279 283 288 291 294 298 300
254 254 254 254 254 253 253 252 253 252 253 253 254 254 254 254 254 254 254 253 253 254 254 254 254 255 256 257 258 258 260 263 265 268 271 273 276 280 283 286 290 294 296
256 256 256 256 255 254 254 254 254 254 253 253 254 255 254 254 255 254 254 254 254 254 255 254 254 255 255 256 258 259 258 260 264 266 269 272 274 277 280 283 286 290 293
256 256 257 257 257 256 256 256 255 255 254 255 255 255 255 255 255 255 255 254 254 254 254 255 255 254 255 256 257 259 259 260 262 264 267 270 273 275 277 279 282 285 289
257 257 257 257 257 257 257 257 256 256 255 256 255 255 255 255 256 256 255 256 255 254 255 255 255 255 255 255 256 258 258 259 260 262 265 267 270 273 275 277 280 282 284
259 258 258 257 258 258 258 258 258 257 256 256 256 256 256 256 256 255 256 255 255 255 254 254 255 256 256 256 256 257 259 260 260 261 263 265 268 271 273 276 278 280 282
260 259 258 258 257 257 258 258 258 257 257 257 257 257 256 256 255 255 256 256 256 256 255 254 254 255 256 256 257 257 258 259 260 261 263 264 266 269 271 273 276 278 280
263 262 260 259 258 258 257 258 258 258 257 257 257 257 257 257 256 256 255 255 256 256 256 255 255 255 256 256 256 258 258 258 260 260 261 263 265 267 269 271 273 276 278
263 262 261 260 259 259 258 258 258 258 258 257 257 257 257 258 257 256 255 254 255 256 256 256 255 255 256 256 256 257 259 258 259 259 260 262 263 265 266 268 270 273 276
262 262 262 262 261 260 260 259 259 259 258 257 257 257 257 257 257 256 256 254 254 255 255 256 256 256 255 256 256 256 257 257 257 258 259 261 261 262 264 266 268 270 274
265 264 263 263 262 261 260 260 260 260 259 258 257 257 257 257 257 257 256 255 254 254 254 255 255 255 255 255 256 257 257 257 256 257 258 259 260 261 262 264 266 268 271
267 266 265 265 264 263 262 261 261 261 260 259 259 257 257 257 257 257 257 256 255 255 256 256 256 255 255 255 256 256 257 258 257 257 257 257 259 259 261 262 265 267 269
269 269 267 266 266 265 264 263 262 262 261 260 259 258 257 256 256 256 257 256 255 255 256 255 255 255 255 255 255 255 255 256 256 257 256 256 257 258 260 261 264 266 267
272 271 270 268 268 266 265 264 264 263 263 262 261 259 258 257 257 257 257 256 255 255 255 255 256 255 254 254 253 254 254 254 255 256 257 257 256 256 258 260 263 264 266
274 274 273 271 270 268 267 266 264 264 264 264 262 261 260 259 258 258 257 257 255 254 254 254 256 255 254 252 252 252 252 253 253 254 256 256 256 256 256 259 261 262 264
276 276 275 274 273 271 269 267 265 265 265 265 264 263 261 260 259 259 257 257 255 254 253 253 254 254 253 252 251 251 251 251 251 252 255 254 255 256 256 257 259 261 263
278 277 278 277 275 272 270 268 266 265 266 266 265 264 263 262 260 259 257 256 255 254 253 252 252 252 252 251 249 250 250 249 250 251 252 253 254 255 256 257 257 259 262
280 280 279 279 277 274 272 271 269 267 267 267 266 265 265 263 261 260 258 256 255 254 252 251 250 250 251 250 248 248 248 247 248 250 251 251 253 255 256 255 256 258 261
282 281 280 280 278 277 275 273 272 271 269 269 267 266 265 264 263 260 259 257 255 254 251 250 249 249 249 248 247 247 247 246 247 248 250 251 253 255 256 254 255 256 260
284 283 282 281 280 280 278 275 274 273 270 270 268 267 266 265 263 261 259 256 254 253 250 248 247 248 248 247 246 245 245 245 245 246 248 250 252 253 255 255 254 255 258
287 285 284 283 283 282 280 277 275 275 272 270 269 268 266 265 263 261 259 256 253 251 249 247 246 246 246 246 244 243 243 244 244 245 247 248 250 252 254 254 255 255 257
290 288 286 285 285 284 281 278 276 276 274 271 269 268 267 265 263 261 259 255 252 250 247 246 245 245 244 244 243 242 243 243 242 244 246 246 248 249 252 253 254 254 257